GW2922 Weather Reports


time (UTC)temp
F
wind
direction
speed
knots
gust
knots
rain 1hr
in
rain 24hr
in
rain mn
in
humidity
%
barometer
mb
20260504044159 65 103 0.9 0.9 0.00 0.00 0.00 46 1012.5
20260504043656 65 344 0.9 0.9 0.00 0.00 0.00 47 1012.5
20260504043153 65 103 0.9 0.9 0.00 0.00 0.00 47 1012.5
20260504042650 66 111 0.0 0.9 0.00 0.00 0.00 47 1012.5
20260504042147 66 111 0.9 1.7 0.00 0.00 0.00 44 1012.5
20260504041642 66 84 0.9 0.9 0.00 0.00 0.00 45 1012.5
20260504041138 66 75 0.9 0.9 0.00 0.00 0.00 44 1012.5
20260504040636 65 293 0.9 1.7 0.00 0.00 0.00 46 1012.5
20260504040133 66 96 0.0 0.9 0.00 0.00 0.00 49 1012.5
20260504035629 66 120 0.0 0.9 0.00 0.00 0.00 49 1012.5
20260504035126 67 104 0.9 0.9 0.00 0.00 0.00 47 1012.5
20260504034624 67 69 0.9 0.9 0.00 0.00 0.00 43 1012.5
20260504034121 68 90 0.0 0.9 0.00 0.00 0.00 44 1012.1
20260504033619 68 96 0.0 0.9 0.00 0.00 0.00 43 1012.5
20260504033116 68 106 0.0 0.9 0.00 0.00 0.00 40 1012.5
20260504032612 68 105 0.0 0.9 0.00 0.00 0.00 44 1012.5
20260504032109 69 80 0.0 0.0 0.00 0.00 0.00 42 1012.5
20260504031607 69 97 0.9 0.9 0.00 0.00 0.00 40 1012.1
20260504031103 70 73 0.0 0.9 0.00 0.00 0.00 39 1012.5
20260504030600 70 106 0.9 0.9 0.00 0.00 0.00 37 1012.5
20260504030056 71 107 0.0 0.9 0.00 0.00 0.00 38 1012.1
20260504025553 71 111 0.9 0.9 0.00 0.00 0.00 36 1012.1
20260504025050 72 98 0.0 2.6 0.00 0.00 0.00 37 1012.5
20260504024547 72 76 0.0 0.9 0.00 0.00 0.00 35 1012.5
20260504024044 73 96 0.0 1.7 0.00 0.00 0.00 35 1012.5
20260504023540 73 88 0.9 1.7 0.00 0.00 0.00 34 1012.5
20260504023036 73 333 1.7 2.6 0.00 0.00 0.00 34 1012.5
20260504022532 73 60 0.9 1.7 0.00 0.00 0.00 36 1012.5
20260504022029 74 75 0.9 2.6 0.00 0.00 0.00 33 1012.5
20260504021526 74 119 0.9 3.5 0.00 0.00 0.00 34 1012.5
20260504021023 75 87 0.9 1.7 0.00 0.00 0.00 33 1012.5
20260504020520 75 108 0.9 1.7 0.00 0.00 0.00 32 1012.8
20260504020017 75 348 1.7 1.7 0.00 0.00 0.00 31 1012.5
20260504015513 76 206 0.9 1.7 0.00 0.00 0.00 31 1012.5
20260504015009 77 346 0.9 2.6 0.00 0.00 0.00 30 1012.8
20260504014505 78 256 1.7 2.6 0.00 0.00 0.00 30 1012.8
20260504014003 79 91 0.0 1.7 0.00 0.00 0.00 31 1012.8
20260504013501 78 124 0.0 0.9 0.00 0.00 0.00 32 1012.8
20260504012956 78 124 0.0 0.9 0.00 0.00 0.00 32 1012.8
20260504012455 78 107 0.9 3.5 0.00 0.00 0.00 32 1012.8
20260504011952 78 121 0.0 0.9 0.00 0.00 0.00 32 1012.8
20260504011448 78 12 0.9 1.7 0.00 0.00 0.00 32 1013.1
20260504010944 78 40 0.9 1.7 0.00 0.00 0.00 33 1013.1
20260504010440 78 62 0.9 2.6 0.00 0.00 0.00 33 1013.1
20260504005936 80 110 0.9 1.7 0.00 0.00 0.00 31 1013.5
20260504005433 78 148 0.9 1.7 0.00 0.00 0.00 33 1013.1
20260504004931 78 295 1.7 2.6 0.00 0.00 0.00 33 1013.5
20260504004429 78 166 0.9 2.6 0.00 0.00 0.00 33 1013.5
20260504003925 80 335 1.7 2.6 0.00 0.00 0.00 31 1013.5
20260504003422 78 149 0.9 1.7 0.00 0.00 0.00 33 1013.5
20260504002918 81 189 0.9 0.9 0.00 0.00 0.00 31 1013.5
20260504002415 79 100 0.0 1.7 0.00 0.00 0.00 31 1013.5
20260504001913 79 63 2.6 2.6 0.00 0.00 0.00 32 1013.5
20260504001410 79 283 1.7 5.2 0.00 0.00 0.00 32 1013.5
20260504000906 80 69 0.0 1.7 0.00 0.00 0.00 31 1013.5
20260504000404 79 311 1.7 2.6 0.00 0.00 0.00 32 1013.5
20260503235901 78 349 2.6 3.5 0.00 0.00 0.00 33 1013.5
20260503235359 78 147 1.7 2.6 0.00 0.00 0.00 33 1013.8
20260503234856 78 115 1.7 3.5 0.00 0.00 0.00 34 1013.5
20260503234354 79 150 0.9 3.5 0.00 0.00 0.00 33 1013.8
20260503233851 78 109 1.7 2.6 0.00 0.00 0.00 33 1013.8
20260503233347 80 76 2.6 5.2 0.00 0.00 0.00 32 1013.8
20260503232844 79 20 0.9 2.6 0.00 0.00 0.00 33 1013.8
20260503232341 80 322 1.7 1.7 0.00 0.00 0.00 31 1014.1
20260503231839 79 188 0.9 1.7 0.00 0.00 0.00 32 1014.1
20260503231335 78 113 0.0 1.7 0.00 0.00 0.00 32 1014.1
20260503230826 77 350 2.6 5.2 0.00 0.00 0.00 34 1014.1
20260503230323 77 191 2.6 5.2 0.00 0.00 0.00 34 1014.1
20260503225821 78 103 3.5 6.1 0.00 0.00 0.00 34 1014.1
20260503225316 80 135 1.7 3.5 0.00 0.00 0.00 34 1014.1
20260503224813 78 123 0.0 1.7 0.00 0.00 0.00 34 1014.5
20260503224310 78 190 0.9 2.6 0.00 0.00 0.00 34 1014.5
20260503223808 78 39 1.7 2.6 0.00 0.00 0.00 34 1014.5
20260503223305 77 319 1.7 3.5 0.00 0.00 0.00 35 1014.5
20260503222801 77 176 1.7 2.6 0.00 0.00 0.00 35 1014.5
20260503222300 76 323 1.7 5.2 0.00 0.00 0.00 36 1014.8
20260503221757 77 209 1.7 5.2 0.00 0.00 0.00 36 1014.8
20260503221255 77 265 0.9 2.6 0.00 0.00 0.00 36 1014.8
20260503220751 78 246 0.0 3.5 0.00 0.00 0.00 35 1014.8
20260503220248 78 134 1.7 3.5 0.00 0.00 0.00 34 1014.8
20260503215745 77 122 0.0 2.6 0.00 0.00 0.00 33 1015.2
20260503215242 77 38 1.7 2.6 0.00 0.00 0.00 34 1014.8
20260503214740 76 62 1.7 5.2 0.00 0.00 0.00 36 1015.2
20260503214237 77 70 1.7 2.6 0.00 0.00 0.00 36 1015.2
20260503213735 76 129 0.9 3.5 0.00 0.00 0.00 36 1015.2
20260503213232 75 81 0.9 6.1 0.00 0.00 0.00 37 1015.2
20260503212729 75 8 1.7 6.1 0.00 0.00 0.00 37 1015.2
20260503212226 75 21 1.7 7.8 0.00 0.00 0.00 39 1015.2
20260503211724 74 312 1.7 3.5 0.00 0.00 0.00 38 1015.2
20260503211220 74 36 2.6 3.5 0.00 0.00 0.00 39 1015.5
20260503210715 75 65 0.9 3.5 0.00 0.00 0.00 39 1015.5
20260503210213 75 328 1.7 3.5 0.00 0.00 0.00 40 1015.5
20260503205708 76 58 1.7 3.5 0.00 0.00 0.00 38 1015.5
20260503205205 74 16 2.6 7.0 0.00 0.00 0.00 39 1015.5
20260503204701 74 84 0.9 5.2 0.00 0.00 0.00 39 1015.5
20260503204159 74 47 0.9 6.1 0.00 0.00 0.00 37 1015.5
20260503203656 75 33 3.5 6.1 0.00 0.00 0.00 37 1015.2
20260503203154 76 142 0.9 3.5 0.00 0.00 0.00 36 1015.5
20260503202650 75 129 0.0 2.6 0.00 0.00 0.00 36 1015.5
20260503202148 73 194 4.3 6.1 0.00 0.00 0.00 38 1015.5
20260503201646 73 62 3.5 6.1 0.00 0.00 0.00 37 1015.2
20260503201143 74 7 2.6 3.5 0.00 0.00 0.00 37 1015.2
20260503200639 73 86 0.9 5.2 0.00 0.00 0.00 37 1015.5
20260503200136 73 14 1.7 3.5 0.00 0.00 0.00 39 1015.5
20260503195633 73 49 1.7 3.5 0.00 0.00 0.00 40 1015.8
20260503195130 74 354 0.9 2.6 0.00 0.00 0.00 40 1015.8
20260503194627 72 55 0.9 2.6 0.00 0.00 0.00 40 1015.8
20260503194122 72 115 3.5 5.2 0.00 0.00 0.00 42 1015.8
20260503193620 71 60 0.9 3.5 0.00 0.00 0.00 43 1015.8
20260503193115 71 319 3.5 3.5 0.00 0.00 0.00 44 1015.8
20260503192611 71 151 1.7 3.5 0.00 0.00 0.00 44 1015.8
20260503192106 71 30 1.7 3.5 0.00 0.00 0.00 44 1015.8
20260503191604 72 269 2.6 5.2 0.00 0.00 0.00 45 1016.2
20260503191100 72 82 0.9 2.6 0.00 0.00 0.00 45 1016.2
20260503190557 72 45 1.7 5.2 0.00 0.00 0.00 44 1016.2
20260503190054 73 184 0.9 2.6 0.00 0.00 0.00 43 1016.2
20260503185551 71 102 0.9 3.5 0.00 0.00 0.00 45 1015.8
20260503185050 70 61 1.7 3.5 0.00 0.00 0.00 47 1016.2
20260503184546 69 16 3.5 3.5 0.00 0.00 0.00 48 1015.8
20260503184043 69 314 4.3 6.1 0.00 0.00 0.00 47 1016.2
20260503183540 70 318 1.7 5.2 0.00 0.00 0.00 48 1016.2
20260503183037 69 39 1.7 3.5 0.00 0.00 0.00 48 1016.2
20260503182536 70 96 0.9 3.5 0.00 0.00 0.00 46 1016.2
20260503182033 69 78 0.9 2.6 0.00 0.00 0.00 48 1016.5
20260503181530 69 73 1.7 5.2 0.00 0.00 0.00 47 1016.5
20260503181026 70 51 1.7 5.2 0.00 0.00 0.00 46 1016.5
20260503180524 71 51 1.7 5.2 0.00 0.00 0.00 48 1016.5
20260503180021 69 10 1.7 1.7 0.00 0.00 0.00 51 1016.5
20260503175518 67 4 0.9 1.7 0.00 0.00 0.00 54 1016.5
20260503175015 66 321 4.3 6.1 0.00 0.00 0.00 56 1016.5
20260503174513 65 352 1.7 5.2 0.00 0.00 0.00 57 1016.9
20260503174008 65 59 2.6 5.2 0.00 0.00 0.00 58 1016.5
20260503173504 65 251 1.7 3.5 0.00 0.00 0.00 58 1016.9
20260503173000 65 61 1.7 5.2 0.00 0.00 0.00 59 1016.9
20260503172458 65 11 2.6 3.5 0.00 0.00 0.00 59 1016.9
20260503171955 63 95 0.9 3.5 0.00 0.00 0.00 62 1016.9
20260503171451 63 53 0.9 5.2 0.00 0.00 0.00 62 1016.9
20260503170949 63 302 2.6 7.8 0.00 0.00 0.00 62 1016.9
20260503170445 64 307 0.9 5.2 0.00 0.00 0.00 60 1016.9
20260503150837 61 330 2.6 6.1 0.00 0.00 0.00 65 1017.2
20260503150333 61 343 1.7 3.5 0.00 0.00 0.00 65 1017.2
20260503140257 61 39 1.7 3.5 0.00 0.00 0.00 64 1016.9
20260503131227 59 357 0.9 1.7 0.00 0.00 0.00 66 1016.9
20260503130725 59 107 0.9 1.7 0.00 0.00 0.00 66 1016.9
20260503130222 59 108 0.0 1.7 0.00 0.00 0.00 65 1016.9
20260503120148 61 58 0.0 1.7 0.00 0.00 0.00 59 1016.9
20260503110615 61 110 0.0 2.6 0.00 0.00 0.00 56 1016.9
20260503110113 61 87 0.9 0.9 0.00 0.00 0.00 56 1016.9
20260503090501 53 107 0.0 0.0 0.00 0.00 0.00 77 1017.2
20260503081422 54 132 0.0 0.9 0.00 0.00 0.00 75 1016.9
20260503080919 54 147 0.9 0.9 0.00 0.00 0.00 75 1016.9
20260503080410 55 113 0.0 0.0 0.00 0.00 0.00 74 1016.9
20260503072847 56 123 0.0 0.9 0.00 0.00 0.00 71 1016.9
20260503072343 57 154 0.0 0.9 0.00 0.00 0.00 71 1016.9
20260503071840 57 145 0.0 0.0 0.00 0.00 0.00 69 1017.2
20260503071337 57 145 0.0 0.9 0.00 0.00 0.00 67 1016.9
20260503070833 58 145 0.0 0.9 0.00 0.00 0.00 66 1016.9
20260503070332 58 145 0.0 0.0 0.00 0.00 0.00 65 1016.9
20260503060256 64 110 0.0 1.7 0.00 0.00 0.00 48 1016.9
20260503054743 64 190 0.0 0.9 0.00 0.00 0.00 51 1017.2
20260503054240 64 163 0.9 1.7 0.00 0.00 0.00 48 1017.2
20260503053738 64 109 0.0 1.7 0.00 0.00 0.00 48 1016.9
20260503053237 64 55 0.9 0.9 0.00 0.00 0.00 50 1016.9
20260503052732 64 126 0.0 2.6 0.00 0.00 0.00 50 1017.2
20260503052230 64 8 0.9 2.6 0.00 0.00 0.00 50 1017.2
20260503051724 64 65 0.9 0.9 0.00 0.00 0.00 51 1017.2
20260503051222 64 79 0.9 1.7 0.00 0.00 0.00 52 1017.2
20260503050719 64 83 0.9 0.9 0.00 0.00 0.00 51 1017.2
20260503050215 64 75 0.9 0.9 0.00 0.00 0.00 50 1016.9
20260503045713 64 66 0.9 1.7 0.00 0.00 0.00 50 1017.2
20260503045210 65 92 0.0 0.9 0.00 0.00 0.00 50 1016.9
20260503044706 64 81 0.0 5.2 0.00 0.00 0.00 50 1016.9